Location: Newark
(25.6108°S, 54.5803°W)
Time: 09:35:45
(UTC+00:00)

deb Explorer IX - Pass Details

Date: 02 November 2020
Orbit: 538 x 1104 km, 38.8° (Epoch: 23 November)

Event Time Altitude Azimuth Distance (km) Brightness Sun altitude
Rises 21:07:05 0° 244° (WSW) 3,424 ? 9.7°
Reaches altitude 10° 21:10:34 10° 226° (SW) 2,364 ? 9.0°
Maximum altitude 21:14:21 18° 182° (S) 1,721 ? 8.1°
Drops below altitude 10° 21:17:47 10° 138° (SE) 2,108 ? 7.4°
Sets 21:20:40 0° 118° (ESE) 2,924 ? 6.7°
